User: anonymous   Login
Location: Unspecified
(0.0000°N, 0.0000°E)
Time: 18:41:24
(UTC+00:00)
Language:

BEEAGLESAT - Orbit

View from above orbital plane
View from above orbital plane
View from above satellite
View from above satellite

Ground track
Ground track

The orbit data is extracted from the following two-line orbital elements,

1 42736U 98067MR  19077.25444135  .00166127  21671-4  45840-3 0  9992
2 42736  51.6280  23.5819 0004715 158.7323 201.3881 15.93550271103690
Epoch (UTC): 18 March 2019 06:06:23
Eccentricity: 0.0004715
inclination: 51.6280°
perigee height: 289 km
apogee height: 295 km
right ascension of ascending node: 23.5819°
argument of perigee: 158.7323°
revolutions per day: 15.93550271
mean anomaly at epoch: 201.3881°
orbit number at epoch: 10369

The dashed part of the orbit path shows where the satellite is in the earth's shadow,  

DLR